Tracking 18874 objects as of 17-Dec-2017
HD Live streaming from Space Station
objects crossing your sky now

MOZ.5/SAFIR/RUBIN 5/SL-8

Track MOZ.5/SAFIR/RUBIN 5/SL-8 now!
10-day predictions
MOZ.5/SAFIR/RUBIN 5/SL-8 is classified as:


NORAD ID: 28898
Int'l Code: 2005-043G
Perigee: 686.0 km
Apogee: 713.1 km
Inclination: 98.0 °
Period: 98.6 minutes
Semi major axis: 7070 km
RCS: 6.834 m2 (large)
Launch date: October 27, 2005
Source: Germany (GER)
Launch site: PLESETSK MISSILE AND SPACE COMPLEX (PKMTR)
Uplink (MHz):
Downlink (MHz):
Beacon (MHz):
Mode:
Call sign:
Status:

aabbcc
Your satellite tracking list
Your tracking list is empty




NASA's NSSDC Master Catalog

Two Line Element Set (TLE):
1 28898U 05043G   17350.39488715  .00000086  00000-0  27168-4 0  9990
2 28898  97.9508 132.4984 0019218 339.3350  20.7072 14.60232735646426
Source of the keplerian elements: AFSPC